Location: Highland Meadows Observing Site
(48.4428°N, 114.5461°W)
Time: 01:05:20
(UTC-07:00)

Amateur Radio Satellites - All Passes

Search period start: 24 November 2014 00:35
Search period end: 25 November 2014 00:35
Location: Highland Meadows Observing Site, 48.4428°N, 114.5461°W

Satellite Date Start Highest point End Downlink Frequencies (MHz)
Time Altitude Azimuth
DANDE 24 Nov 00:39:54 00:43:51 87° 78° (ENE) 00:49:15 436.750
MaSat-1 24 Nov 00:43:25 00:45:28 27° 54° (NE) 00:47:31 437.345
Oscar 19 24 Nov 00:43:28 00:44:37 11° 85° (E) 00:45:47 437.125/150
ISS 24 Nov 00:44:06 00:46:42 22° 141° (SE) 00:49:19 145.825
POLYITAN 1 24 Nov 00:50:38 00:54:03 24° 296° (WNW) 00:57:26 437.675
ITUPSAT 1 24 Nov 00:52:47 00:57:32 63° 71° (ENE) 01:02:19 437.325
QB50P2 24 Nov 00:53:41 00:57:01 23° 297° (WNW) 01:00:19 145.880/145.840
RS-15 24 Nov 00:56:28 01:07:36 70° 45° (NE) 01:19:11 29.354- 29.394
DUCHIFAT 1 24 Nov 01:01:30 01:04:33 20° 298° (WNW) 01:07:36 145.980
TIGRISAT 24 Nov 01:02:48 01:05:28 16° 300° (WNW) 01:08:10 435.000
KKS-1 24 Nov 01:04:28 01:07:47 21° 61° (ENE) 01:11:07 437.445
SWISSCUBE 24 Nov 01:04:37 01:09:25 87° 74° (ENE) 01:14:17 437.505
TISAT 1 24 Nov 01:13:13 01:15:42 15° 270° (W) 01:18:11 437.305
SPROUT 24 Nov 01:15:26 01:18:14 17° 270° (W) 01:21:02 437.525
UNISAT 6 24 Nov 01:15:47 01:17:41 13° 303° (WNW) 01:19:35 437.425
NANOSAT C BR1 24 Nov 01:21:16 01:23:24 14° 302° (WNW) 01:25:31 145.865
PCSat 24 Nov 01:23:11 01:24:11 10° 359° (N) 01:25:11 145.827
AUBIESAT-1 24 Nov 01:23:51 01:27:27 30° 260° (W) 01:31:23 437.475
M-CUBED/EXP-1 PRIME 24 Nov 01:27:42 01:31:08 26° 262° (W) 01:34:50 437.505
ITAMSAT 1 24 Nov 01:30:52 01:32:38 12° 85° (E) 01:34:23 435.822/435.867
QB50P1 24 Nov 01:31:31 01:32:51 11° 304° (NW) 01:34:11 145.935-145.965
BEESAT 24 Nov 01:36:26 01:41:07 53° 260° (W) 01:45:50 436.000
Gurwin Techsat 1B 24 Nov 01:50:23 01:51:17 10° 84° (E) 01:52:11 435.225
STARS 24 Nov 02:03:54 02:08:10 50° 70° (ENE) 02:12:27 437.465
CUSAT 1 24 Nov 02:09:12 02:11:27 14° 269° (W) 02:13:58 437.405
Oscar 19 24 Nov 02:19:41 02:24:52 74° 103° (ESE) 02:30:02 437.125/150
ISS 24 Nov 02:19:46 02:23:04 84° 341° (NNW) 02:26:22 145.825
DANDE 24 Nov 02:26:15 02:27:10 11° 270° (W) 02:28:08 436.750
ITUPSAT 1 24 Nov 02:32:35 02:35:52 18° 270° (W) 02:39:11 437.325
KKS-1 24 Nov 02:39:46 02:44:07 52° 260° (W) 02:48:29 437.445
YUBILEINY 24 Nov 02:41:33 02:49:50 48° 88° (E) 02:58:06 435.215
SWISSCUBE 24 Nov 02:45:47 02:47:58 13° 273° (W) 02:50:09 437.505
BEESAT 3 24 Nov 03:00:09 03:01:26 11° 18° (NNE) 03:02:43 437.485
PCSat 24 Nov 03:06:35 03:10:02 17° 26° (NNE) 03:13:28 145.827
ITAMSAT 1 24 Nov 03:07:46 03:12:59 79° 104° (ESE) 03:18:09 435.822/435.867
RS-15 24 Nov 03:09:16 03:19:30 44° 249° (WSW) 03:30:10 29.354- 29.394
BEESAT 2 24 Nov 03:13:30 03:15:13 12° 20° (NNE) 03:16:56 435.950
Gurwin Techsat 1B 24 Nov 03:26:54 03:32:14 71° 103° (ESE) 03:37:31 435.225
MOZHAYETS 4 24 Nov 03:29:36 03:32:56 20° 61° (ENE) 03:36:17
AIST 2 24 Nov 03:38:00 03:39:46 12° 19° (NNE) 03:41:31 435.215
STARS 24 Nov 03:41:45 03:44:57 19° 268° (W) 03:48:10 437.465
HORYU 2 24 Nov 03:43:10 03:47:31 47° 100° (E) 03:51:51 437.375
ISS 24 Nov 03:56:45 03:59:56 45° 359° (N) 04:03:08 145.825
Oscar 19 24 Nov 04:00:05 04:03:40 19° 302° (WNW) 04:07:14 437.125/150
AO-7 24 Nov 04:20:50 04:28:37 40° 98° (E) 04:36:20 29.400- 29.500
JAS-2 24 Nov 04:29:47 04:34:30 18° 82° (E) 04:38:54 435.910
BEESAT 3 24 Nov 04:37:07 04:40:56 32° 40° (NE) 04:44:44 437.485
YUBILEINY 24 Nov 04:38:21 04:46:43 46° 290° (WNW) 04:55:07 435.215
SO-50 24 Nov 04:43:23 04:47:40 43° 120° (ESE) 04:52:06 436.795
STRAND 1 24 Nov 04:45:28 04:47:53 14° 53° (NE) 04:50:18 437.568
ITAMSAT 1 24 Nov 04:48:25 04:51:53 18° 304° (WNW) 04:55:20 435.822/435.867
PCSat 24 Nov 04:49:23 04:54:43 53° 49° (NE) 05:00:01 145.827
BEESAT 2 24 Nov 04:50:42 04:54:41 38° 42° (NE) 04:58:36 435.950
MOZHAYETS 4 24 Nov 05:05:15 05:09:46 57° 260° (W) 05:14:21
CUBESAT XI-V 24 Nov 05:05:23 05:08:18 17° 58° (ENE) 05:11:14 437.345
Gurwin Techsat 1B 24 Nov 05:07:49 05:11:41 21° 302° (WNW) 05:15:32 435.225
AIST 2 24 Nov 05:15:37 05:19:38 36° 42° (NE) 05:23:36 435.215
HORYU 2 24 Nov 05:20:26 05:23:56 23° 298° (WNW) 05:27:26 437.375
PRISM 24 Nov 05:27:12 05:31:19 56° 71° (ENE) 05:35:29 437.425
Cubesat XI-IV 24 Nov 05:32:27 05:34:25 12° 85° (E) 05:36:23 437.490
ISS 24 Nov 05:33:32 05:36:51 76° 18° (NNE) 05:40:09 145.825
O/OREOS (USA 219) 24 Nov 06:05:12 06:08:27 20° 102° (ESE) 06:11:42 437.305
CUTE-I 24 Nov 06:12:35 06:17:03 26° 93° (E) 06:21:28 437.470
JAS-2 24 Nov 06:13:20 06:20:46 86° 105° (ESE) 06:27:19 435.910
AO-7 24 Nov 06:13:35 06:21:41 57° 298° (WNW) 06:29:47 29.400- 29.500
BEESAT 3 24 Nov 06:15:19 06:19:15 39° 240° (WSW) 06:23:08 437.485
STRAND 1 24 Nov 06:21:05 06:26:13 74° 72° (ENE) 06:31:22 437.568
SO-50 24 Nov 06:24:07 06:28:20 35° 321° (NW) 06:32:41 436.795
BEESAT 2 24 Nov 06:29:09 06:32:56 32° 242° (WSW) 06:36:40 435.950
PCSat 24 Nov 06:33:13 06:37:53 30° 249° (WSW) 06:42:32 145.827
CUBESAT XI-V 24 Nov 06:40:27 06:45:11 77° 257° (WSW) 06:49:56 437.345
GONETS M04 24 Nov 06:43:23 06:45:01 11° 66° (ENE) 06:46:38
YUBILEINY 24 Nov 06:43:30 06:46:25 12° 317° (NW) 06:49:21 435.215
AIST 2 24 Nov 06:54:19 06:58:17 36° 241° (WSW) 07:02:12 435.215
PRISM 24 Nov 07:04:33 07:07:14 17° 269° (W) 07:09:58 437.425
AIST 1 24 Nov 07:09:19 07:13:41 58° 77° (ENE) 07:17:59
Cubesat XI-IV 24 Nov 07:10:02 07:15:24 79° 104° (ESE) 07:20:43 437.490
ISS 24 Nov 07:10:28 07:13:16 26° 217° (SW) 07:16:04 145.825
O/OREOS (USA 219) 24 Nov 07:43:06 07:47:29 52° 301° (WNW) 07:51:53 437.305
CUTE-I 24 Nov 07:52:15 07:57:23 50° 292° (WNW) 08:02:29 437.470
JAS-2 24 Nov 07:59:13 08:04:52 24° 307° (NW) 08:10:06 435.910
STRAND 1 24 Nov 08:02:39 08:05:58 17° 271° (W) 08:09:18 437.568
AO-7 24 Nov 08:07:42 08:12:47 18° 322° (NW) 08:17:52 29.400- 29.500
SO-50 24 Nov 08:07:52 08:10:17 14° 345° (NNW) 08:12:43 436.795
SEEDS 24 Nov 08:29:36 08:31:06 12° 87° (E) 08:32:35 437.485
GONETS M04 24 Nov 08:31:10 08:39:34 53° 89° (E) 08:48:03
BRITE-PL 24 Nov 08:40:18 08:42:50 16° 90° (E) 08:45:21 437.365/2234.400
AIST 1 24 Nov 08:48:13 08:50:52 16° 276° (W) 08:53:30
HO-68 24 Nov 08:49:05 08:55:22 31° 94° (E) 09:01:35 435.675
AAUSAT CUBESAT 2 24 Nov 08:49:45 08:52:04 14° 89° (E) 08:54:23 437.432
Cubesat XI-IV 24 Nov 08:51:14 08:54:54 19° 304° (WNW) 08:58:33 437.490
CANX-2 24 Nov 08:53:13 08:56:47 25° 94° (E) 09:00:20 2200.000
TIGRISAT 24 Nov 08:53:48 08:55:42 13° 57° (ENE) 08:57:37 435.000
COMPASS 1 24 Nov 09:02:55 09:06:13 22° 92° (E) 09:09:31 437.405
UNISAT 6 24 Nov 09:05:25 09:08:07 17° 60° (ENE) 09:10:50 437.425
NANOSAT C BR1 24 Nov 09:07:25 09:09:20 13° 58° (ENE) 09:11:14 145.865
QB50P1 24 Nov 09:16:20 09:18:51 16° 59° (ENE) 09:21:22 145.935-145.965
DOVE 4 24 Nov 09:25:42 09:29:10 25° 94° (E) 09:32:40 437.250
O/OREOS (USA 219) 24 Nov 09:27:12 09:27:59 10° 322° (NW) 09:28:47 437.305
CUTE 1.7 & AOD 2 24 Nov 09:27:45 09:31:56 50° 99° (E) 09:36:07 437.475
ANTELSAT 24 Nov 09:32:45 09:36:26 29° 66° (ENE) 09:40:07 437.575/2403.000
BUGSAT 1 24 Nov 09:36:22 09:39:29 20° 62° (ENE) 09:42:35 437.445
POPSAT HIP 1 24 Nov 09:39:43 09:43:11 25° 64° (ENE) 09:46:39 437.405
UKube-1 24 Nov 09:45:51 09:49:24 24° 94° (E) 09:52:55 .
FUNcube-1 24 Nov 09:46:42 09:48:43 13° 89° (E) 09:50:44 145.935
SO-50 24 Nov 09:50:55 09:52:53 12° 10° (N) 09:54:53 436.795
Oscar 11 24 Nov 09:58:14 10:02:18 37° 97° (E) 10:06:20 145.826/435.025
GOMX 1 24 Nov 09:58:32 10:02:41 72° 102° (ESE) 10:06:52 467.674
CUBEBUG 2 24 Nov 10:02:35 10:06:06 25° 94° (E) 10:09:39 437.445
SEEDS 24 Nov 10:03:14 10:07:31 81° 285° (WNW) 10:11:47 437.485
UWE-3 24 Nov 10:06:51 10:10:19 24° 94° (E) 10:13:49 435.000/436.395/437.385
POLYITAN 1 24 Nov 10:11:18 10:15:25 49° 71° (ENE) 10:19:32 437.675
QB50P2 24 Nov 10:14:04 10:18:12 52° 71° (ENE) 10:22:22 145.880/145.840
CINEMA 3 24 Nov 10:15:20 10:19:25 50° 100° (E) 10:23:35 145.822/145.860
BRITE-PL 24 Nov 10:17:42 10:21:47 54° 288° (WNW) 10:25:49 437.365/2234.400
DX 1 24 Nov 10:19:02 10:23:18 51° 101° (E) 10:27:32 434.975-435.025
DUCHIFAT 1 24 Nov 10:21:18 10:25:30 61° 72° (ENE) 10:29:42 145.980
AAUSAT CUBESAT 2 24 Nov 10:24:00 10:28:12 65° 287° (WNW) 10:32:23 437.432
TIGRISAT 24 Nov 10:27:36 10:31:52 84° 256° (WSW) 10:36:09 435.000
GONETS M04 24 Nov 10:28:23 10:36:38 43° 292° (WNW) 10:44:58
CANX-2 24 Nov 10:28:52 10:32:50 37° 291° (WNW) 10:36:47 2200.000
ESTCUBE 1 24 Nov 10:34:37 10:35:58 11° 86° (E) 10:37:19 437.505/2401.250
HO-68 24 Nov 10:36:26 10:43:30 61° 294° (WNW) 10:50:31 435.675
COMPASS 1 24 Nov 10:38:08 10:42:08 42° 290° (WNW) 10:46:09 437.405
DELFI C3 24 Nov 10:38:39 10:42:49 83° 104° (ESE) 10:46:58 145.870
UNISAT 6 24 Nov 10:40:16 10:44:30 62° 259° (WSW) 10:48:45 437.425
NANOSAT C BR1 24 Nov 10:40:20 10:44:36 86° 256° (WSW) 10:48:53 145.865
VELOX 1 24 Nov 10:40:46 10:44:40 30° 96° (E) 10:48:32 145.980
HUMSAT D 24 Nov 10:43:20 10:47:02 30° 96° (E) 10:50:45 437.325/437.525
50 SAT 24 Nov 10:44:51 10:48:18 26° 95° (E) 10:51:45 437.505
ZACube-1 24 Nov 10:45:46 10:49:53 51° 100° (E) 10:54:03 437.345
QB50P1 24 Nov 10:50:01 10:54:16 69° 258° (WSW) 10:58:32 145.935-145.965
DOVE 4 24 Nov 11:03:18 11:07:03 34° 292° (WNW) 11:10:51 437.250
CUTE 1.7 & AOD 2 24 Nov 11:04:26 11:07:33 20° 298° (WNW) 11:10:40 437.475
AISAT 24 Nov 11:05:35 11:09:56 52° 100° (E) 11:14:15 437.250
ANTELSAT 24 Nov 11:09:22 11:13:12 32° 264° (W) 11:17:03 437.575/2403.000
BUGSAT 1 24 Nov 11:10:32 11:14:41 49° 260° (W) 11:18:49 437.445
POPSAT HIP 1 24 Nov 11:14:57 11:18:56 38° 262° (W) 11:22:56 437.405
FUNcube-1 24 Nov 11:21:22 11:25:33 70° 286° (WNW) 11:29:48 145.935
UKube-1 24 Nov 11:21:39 11:25:43 40° 292° (WNW) 11:29:45 .
CUBEBUG 1 24 Nov 11:25:38 11:29:36 32° 96° (E) 11:33:30 437.445
SO-50 24 Nov 11:31:01 11:35:05 26° 34° (NNE) 11:39:11 436.795
Oscar 11 24 Nov 11:34:42 11:38:20 26° 295° (WNW) 11:41:58 145.826/435.025
GOMX 1 24 Nov 11:38:13 11:40:20 14° 301° (WNW) 11:42:27 467.674
CUBEBUG 2 24 Nov 11:39:04 11:42:55 35° 292° (WNW) 11:46:49 437.445
SEEDS 24 Nov 11:41:26 11:42:38 11° 303° (WNW) 11:43:51 437.485
UWE-3 24 Nov 11:43:07 11:46:59 37° 291° (WNW) 11:50:55 435.000/436.395/437.385
POLYITAN 1 24 Nov 11:48:38 11:51:39 19° 268° (W) 11:54:41 437.675
QB50P2 24 Nov 11:51:34 11:54:27 18° 269° (W) 11:57:21 145.880/145.840
CINEMA 3 24 Nov 11:53:24 11:56:21 19° 298° (WNW) 11:59:19 145.822/145.860
DX 1 24 Nov 11:56:01 11:59:13 20° 299° (WNW) 12:02:24 434.975-435.025
DUCHIFAT 1 24 Nov 11:59:16 12:01:47 15° 270° (W) 12:04:19 145.980
Oscar 19 24 Nov 12:02:30 12:06:36 25° 61° (ENE) 12:10:42 437.125/150
ESTCUBE 1 24 Nov 12:08:57 12:13:33 89° 106° (ESE) 12:18:05 437.505/2401.250
DELFI C3 24 Nov 12:15:44 12:17:32 13° 302° (WNW) 12:19:20 145.870
VELOX 1 24 Nov 12:17:18 12:21:17 33° 294° (WNW) 12:25:14 145.980
HUMSAT D 24 Nov 12:19:14 12:22:49 29° 293° (WNW) 12:26:26 437.325/437.525
50 SAT 24 Nov 12:20:03 12:23:40 32° 292° (WNW) 12:27:17 437.505
ZACube-1 24 Nov 12:23:00 12:25:58 19° 298° (WNW) 12:28:58 437.345
HO-68 24 Nov 12:25:43 12:29:52 17° 316° (NW) 12:34:00 435.675
GONETS M04 24 Nov 12:34:27 12:36:35 11° 319° (NW) 12:38:44
AISAT 24 Nov 12:42:59 12:46:15 20° 299° (WNW) 12:49:29 437.250
YUBILEINY 24 Nov 12:46:47 12:54:13 30° 62° (ENE) 13:01:34 435.215
ITAMSAT 1 24 Nov 12:51:16 12:55:39 28° 62° (ENE) 13:00:03 435.822/435.867
ITUPSAT 1 24 Nov 12:51:48 12:53:49 12° 87° (E) 12:55:50 437.325
TISAT 1 24 Nov 12:52:29 12:56:43 69° 102° (ESE) 13:00:54 437.305
SPROUT 24 Nov 12:56:42 13:01:00 68° 102° (ESE) 13:05:15 437.525
CUBEBUG 1 24 Nov 13:02:06 13:05:56 30° 294° (WNW) 13:09:43 437.445
SWISSCUBE 24 Nov 13:02:32 13:05:43 17° 90° (E) 13:08:53 437.505
AUBIESAT-1 24 Nov 13:02:59 13:06:22 18° 95° (E) 13:09:43 437.475
M-CUBED/EXP-1 PRIME 24 Nov 13:06:41 13:10:27 21° 96° (E) 13:14:10 437.505
SO-50 24 Nov 13:11:16 13:16:08 75° 234° (SW) 13:21:01 436.795
HORYU 2 24 Nov 13:13:10 13:13:55 10° 54° (NE) 13:14:41 437.375
Gurwin Techsat 1B 24 Nov 13:13:17 13:17:37 26° 61° (ENE) 13:21:58 435.225
BEESAT 24 Nov 13:33:16 13:37:31 30° 95° (E) 13:41:44 436.000
AO-7 24 Nov 13:34:28 13:40:24 22° 43° (NE) 13:46:20 29.400- 29.500
Oscar 19 24 Nov 13:40:38 13:45:37 54° 260° (W) 13:50:40 437.125/150
CUSAT 1 24 Nov 13:42:49 13:45:28 59° 100° (E) 13:48:03 437.405
ESTCUBE 1 24 Nov 13:47:30 13:49:45 14° 303° (WNW) 13:52:01 437.505/2401.250
DANDE 24 Nov 14:01:03 14:03:49 89° 289° (WNW) 14:06:26 436.750
ITUPSAT 1 24 Nov 14:27:34 14:32:25 89° 285° (WNW) 14:37:13 437.325
KKS-1 24 Nov 14:27:48 14:31:22 23° 93° (E) 14:34:54 437.445
TISAT 1 24 Nov 14:29:38 14:32:04 15° 301° (WNW) 14:34:29 437.305
ITAMSAT 1 24 Nov 14:29:53 14:34:55 48° 260° (W) 14:39:59 435.822/435.867
O/OREOS (USA 219) 24 Nov 14:32:01 14:34:13 13° 42° (NE) 14:36:25 437.305
SPROUT 24 Nov 14:34:03 14:36:36 16° 301° (WNW) 14:39:09 437.525
AUBIESAT-1 24 Nov 14:36:53 14:41:47 70° 293° (WNW) 14:46:39 437.475
SWISSCUBE 24 Nov 14:39:16 14:44:03 65° 288° (WNW) 14:48:48 437.505
M-CUBED/EXP-1 PRIME 24 Nov 14:40:57 14:45:49 61° 294° (WNW) 14:50:39 437.505
YUBILEINY 24 Nov 14:43:14 14:51:56 75° 265° (W) 15:00:34 435.215
HORYU 2 24 Nov 14:45:22 14:49:46 70° 73° (ENE) 14:54:13 437.375
JAS-2 24 Nov 14:46:14 14:51:03 18° 47° (NE) 14:55:52 435.910
Gurwin Techsat 1B 24 Nov 14:52:06 14:57:17 54° 260° (W) 15:02:31 435.225
SO-50 24 Nov 14:54:04 14:55:53 12° 252° (WSW) 14:57:42 436.795
BEESAT 24 Nov 15:11:00 15:15:26 37° 294° (WNW) 15:19:49 436.000
AO-7 24 Nov 15:23:39 15:31:53 73° 66° (ENE) 15:40:12 29.400- 29.500
STARS 24 Nov 15:26:36 15:30:58 60° 101° (ESE) 15:35:18 437.465
RS-15 24 Nov 15:27:56 15:36:03 25° 101° (ESE) 15:44:07 29.354- 29.394
MaSat-1 24 Nov 15:49:49 15:52:26 29° 115° (ESE) 15:54:51 437.345
CUTE-I 24 Nov 16:02:17 16:04:13 12° 50° (NE) 16:06:09 437.470
KKS-1 24 Nov 16:04:00 16:08:12 42° 291° (WNW) 16:12:23 437.445
ITUPSAT 1 24 Nov 16:07:01 16:09:37 15° 304° (NW) 16:12:13 437.325
O/OREOS (USA 219) 24 Nov 16:09:59 16:14:28 74° 63° (ENE) 16:18:56 437.305
AUBIESAT-1 24 Nov 16:13:32 16:15:58 14° 311° (NW) 16:18:24 437.475
M-CUBED/EXP-1 PRIME 24 Nov 16:18:00 16:19:57 12° 313° (NW) 16:21:54 437.505
SWISSCUBE 24 Nov 16:19:45 16:21:01 11° 308° (NW) 16:22:16 437.505
PHONESAT 2.4 24 Nov 16:21:19 16:23:21 14° 159° (SSE) 16:25:23 2401.200-2431.200
HORYU 2 24 Nov 16:24:33 16:26:58 14° 271° (W) 16:29:23 437.375
JAS-2 24 Nov 16:27:04 16:34:37 62° 68° (ENE) 16:42:20 435.910
VERMONT LUNAR 24 Nov 16:38:13 16:40:46 18° 166° (SSE) 16:43:20 437.305
YUBILEINY 24 Nov 16:42:05 16:47:09 17° 287° (WNW) 16:52:13 435.215
Cubesat XI-IV 24 Nov 16:56:58 17:01:36 31° 62° (ENE) 17:06:14 437.490
MOZHAYETS 4 24 Nov 16:57:06 17:01:04 27° 93° (E) 17:04:59
STARS 24 Nov 17:04:04 17:07:03 18° 300° (WNW) 17:10:01 437.465
AO-7 24 Nov 17:18:23 17:25:23 30° 267° (W) 17:32:28 29.400- 29.500
MaSat-1 24 Nov 17:25:13 17:27:04 16° 310° (NW) 17:28:50 437.345
RS-15 24 Nov 17:35:47 17:46:44 84° 125° (SE) 17:57:46 29.354- 29.394
CUTE-I 24 Nov 17:38:00 17:43:16 62° 70° (ENE) 17:48:34 437.470
HO-68 24 Nov 17:42:14 17:42:25 10° 35° (NE) 17:42:35 435.675
O/OREOS (USA 219) 24 Nov 17:50:58 17:53:16 14° 261° (W) 17:55:33 437.305
PHONESAT 2.4 24 Nov 17:58:25 18:01:26 24° 176° (S) 18:04:27 2401.200-2431.200
JAS-2 24 Nov 18:13:06 18:19:58 36° 268° (W) 18:27:05 435.910
VERMONT LUNAR 24 Nov 18:15:41 18:18:37 23° 183° (S) 18:21:34 437.305
STRAND 1 24 Nov 18:28:53 18:32:26 19° 90° (E) 18:35:57 437.568
MOZHAYETS 4 24 Nov 18:34:03 18:38:25 40° 292° (WNW) 18:42:46
CUBESAT XI-V 24 Nov 18:34:24 18:37:58 21° 91° (E) 18:41:30 437.345
Cubesat XI-IV 24 Nov 18:36:22 18:41:31 46° 261° (W) 18:46:41 437.490
GONETS M04 24 Nov 18:36:34 18:44:21 33° 63° (ENE) 18:52:02
PRISM 24 Nov 18:42:16 18:46:28 56° 101° (E) 18:50:37 437.425
CUTE-I 24 Nov 19:19:42 19:23:46 22° 269° (W) 19:27:51 437.470
HO-68 24 Nov 19:21:42 19:28:07 37° 58° (ENE) 19:34:33 435.675
SEEDS 24 Nov 19:25:48 19:28:09 15° 59° (ENE) 19:30:30 437.485
GOMX 1 24 Nov 19:34:25 19:37:20 17° 61° (ENE) 19:40:08 467.674
PCSat 24 Nov 19:36:20 19:40:15 21° 107° (ESE) 19:44:10 145.827
PHONESAT 2.4 24 Nov 19:36:51 19:39:36 20° 193° (SSW) 19:42:21 2401.200-2431.200
AIST 1 24 Nov 19:43:16 19:47:02 28° 89° (E) 19:50:50
AAUSAT CUBESAT 2 24 Nov 19:45:07 19:47:51 17° 61° (ENE) 19:50:35 437.432
DX 1 24 Nov 19:46:02 19:47:08 11° 54° (NE) 19:48:13 434.975-435.025
CINEMA 3 24 Nov 19:48:29 19:48:51 10° 56° (NE) 19:49:13 145.822/145.860
RS-15 24 Nov 19:50:04 20:00:20 43° 334° (NNW) 20:10:48 29.354- 29.394
CANX-2 24 Nov 19:50:13 19:53:52 29° 66° (ENE) 19:57:33 2200.000
BRITE-PL 24 Nov 19:54:04 19:58:27 33° 67° (ENE) 20:02:33 437.365/2234.400
VERMONT LUNAR 24 Nov 19:54:19 19:56:25 15° 199° (SSW) 19:58:31 437.305
COMPASS 1 24 Nov 19:58:34 20:01:59 25° 65° (ENE) 20:05:25 437.405
DELFI C3 24 Nov 19:59:17 20:00:29 11° 57° (ENE) 20:01:41 145.870
STRAND 1 24 Nov 20:07:01 20:12:07 67° 289° (WNW) 20:17:10 437.568
CUBESAT XI-V 24 Nov 20:11:10 20:15:43 51° 290° (WNW) 20:20:13 437.345
BEESAT 3 24 Nov 20:15:05 20:17:37 16° 112° (ESE) 20:20:10 437.485
PRISM 24 Nov 20:18:43 20:21:39 18° 299° (WNW) 20:24:33 437.425
CUTE 1.7 & AOD 2 24 Nov 20:24:29 20:28:37 58° 72° (ENE) 20:32:48 437.475
BEESAT 2 24 Nov 20:28:47 20:31:48 20° 113° (ESE) 20:34:50 435.950
GONETS M04 24 Nov 20:33:09 20:41:56 69° 266° (W) 20:50:36
AISAT 24 Nov 20:34:29 20:35:59 12° 55° (NE) 20:37:29 437.250
DOVE 4 24 Nov 20:35:01 20:39:20 42° 70° (ENE) 20:43:27 437.250
UKube-1 24 Nov 20:44:34 20:48:30 34° 66° (ENE) 20:52:27 .
FUNcube-1 24 Nov 20:46:35 20:49:24 18° 62° (ENE) 20:52:13 145.935
Oscar 11 24 Nov 20:56:42 21:00:49 46° 70° (ENE) 21:04:57 145.826/435.025
AIST 2 24 Nov 20:56:57 21:00:03 20° 113° (ESE) 21:03:10 435.215
SEEDS 24 Nov 20:59:18 21:03:28 71° 258° (WSW) 21:07:42 437.485
CUBEBUG 2 24 Nov 21:04:55 21:08:45 34° 68° (ENE) 21:12:32 437.445
UWE-3 24 Nov 21:08:06 21:11:52 32° 67° (ENE) 21:15:35 435.000/436.395/437.385
HO-68 24 Nov 21:08:32 21:15:34 56° 258° (WSW) 21:22:40 435.675
GOMX 1 24 Nov 21:10:17 21:15:03 70° 258° (WSW) 21:19:32 467.674
PCSat 24 Nov 21:17:41 21:23:06 73° 306° (NW) 21:28:34 145.827
DX 1 24 Nov 21:18:13 21:22:36 74° 73° (ENE) 21:26:59 434.975-435.025
AAUSAT CUBESAT 2 24 Nov 21:19:03 21:23:08 57° 260° (W) 21:27:16 437.432
AIST 1 24 Nov 21:20:41 21:24:38 32° 288° (WNW) 21:28:38
CINEMA 3 24 Nov 21:21:00 21:25:22 75° 74° (ENE) 21:29:37 145.822/145.860
CANX-2 24 Nov 21:26:01 21:29:46 31° 265° (W) 21:33:34 2200.000
DELFI C3 24 Nov 21:31:03 21:35:07 87° 76° (ENE) 21:39:15 145.870
BRITE-PL 24 Nov 21:32:25 21:36:57 34° 263° (W) 21:41:13 437.365/2234.400
COMPASS 1 24 Nov 21:33:44 21:37:35 36° 263° (W) 21:41:29 437.405
ESTCUBE 1 24 Nov 21:37:24 21:40:30 18° 60° (ENE) 21:43:36 437.505/2401.250
50 SAT 24 Nov 21:37:40 21:41:10 29° 67° (ENE) 21:44:40 437.505
HUMSAT D 24 Nov 21:39:30 21:43:16 36° 68° (ENE) 21:47:03 437.325/437.525
VELOX 1 24 Nov 21:42:14 21:46:28 43° 69° (ENE) 21:50:43 145.980
ZACube-1 24 Nov 21:45:45 21:49:55 66° 73° (ENE) 21:54:04 437.345
STRAND 1 24 Nov 21:48:25 21:50:22 12° 308° (NW) 21:52:19 437.568
BEESAT 3 24 Nov 21:51:14 21:55:21 70° 310° (NW) 21:59:33 437.485
CUTE 1.7 & AOD 2 24 Nov 22:02:23 22:04:57 16° 271° (W) 22:07:32 437.475
BEESAT 2 24 Nov 22:05:38 22:09:43 57° 312° (NW) 22:13:53 435.950
RS-15 24 Nov 22:06:23 22:16:11 35° 8° (N) 22:26:15 29.354- 29.394
AISAT 24 Nov 22:07:23 22:11:52 77° 74° (ENE) 22:16:22 437.250
DOVE 4 24 Nov 22:13:38 22:17:17 23° 266° (W) 22:20:48 437.250
TISAT 1 24 Nov 22:16:16 22:17:48 12° 56° (ENE) 22:19:19 437.305
TIGRISAT 24 Nov 22:16:45 22:19:23 15° 90° (E) 22:22:03 435.000
UKube-1 24 Nov 22:20:57 22:24:43 28° 264° (W) 22:28:31 .
FUNcube-1 24 Nov 22:21:18 22:25:25 54° 260° (W) 22:29:32 145.935
SPROUT 24 Nov 22:21:54 22:23:28 12° 56° (ENE) 22:25:01 437.525
NANOSAT C BR1 24 Nov 22:24:06 22:25:48 12° 88° (E) 22:27:29 145.865
CUBEBUG 1 24 Nov 22:25:30 22:29:44 44° 69° (ENE) 22:33:58 437.445
UNISAT 6 24 Nov 22:29:07 22:32:28 21° 92° (E) 22:35:51 437.425
GONETS M04 24 Nov 22:32:20 22:37:00 16° 289° (WNW) 22:41:39
QB50P1 24 Nov 22:33:09 22:35:39 15° 90° (E) 22:38:08 145.935-145.965
Oscar 11 24 Nov 22:34:01 22:37:14 20° 268° (W) 22:40:28 145.826/435.025
AIST 2 24 Nov 22:34:06 22:38:18 59° 312° (NW) 22:42:35 435.215
CUBEBUG 2 24 Nov 22:41:57 22:45:32 26° 265° (W) 22:49:05 437.445
UWE-3 24 Nov 22:44:49 22:48:27 27° 265° (W) 22:52:04 435.000/436.395/437.385
BUGSAT 1 24 Nov 22:50:24 22:53:17 18° 91° (E) 22:56:07 437.445
DANDE 24 Nov 22:54:38 22:56:05 11° 66° (ENE) 22:57:39 436.750
POPSAT HIP 1 24 Nov 22:56:59 23:00:33 26° 94° (E) 23:04:05 437.405
ANTELSAT 24 Nov 22:57:11 23:01:19 38° 98° (E) 23:05:31 437.575/2403.000
DX 1 24 Nov 22:57:12 22:59:22 13° 271° (W) 23:01:32 434.975-435.025
CINEMA 3 24 Nov 23:01:15 23:03:06 12° 272° (W) 23:04:56 145.822/145.860
PCSat 24 Nov 23:03:29 23:07:28 20° 329° (NNW) 23:11:29 145.827
HO-68 24 Nov 23:04:06 23:04:54 10° 279° (W) 23:05:43 435.675
ESTCUBE 1 24 Nov 23:12:25 23:16:56 64° 258° (WSW) 23:21:29 437.505/2401.250
50 SAT 24 Nov 23:12:57 23:16:28 29° 265° (W) 23:20:00 437.505
HUMSAT D 24 Nov 23:15:50 23:19:12 24° 266° (W) 23:22:35 437.325/437.525
VELOX 1 24 Nov 23:19:41 23:23:15 23° 267° (W) 23:26:51 145.980
ZACube-1 24 Nov 23:24:37 23:26:46 14° 271° (W) 23:28:54 437.345
POLYITAN 1 24 Nov 23:29:21 23:33:32 56° 101° (E) 23:37:41 437.675
BEESAT 3 24 Nov 23:31:38 23:34:21 17° 332° (NNW) 23:37:05 437.485
QB50P2 24 Nov 23:31:53 23:36:05 59° 101° (E) 23:40:16 145.880/145.840
DUCHIFAT 1 24 Nov 23:38:46 23:43:00 69° 102° (ESE) 23:47:11 145.980
BEESAT 2 24 Nov 23:46:27 23:48:54 15° 334° (NNW) 23:51:23 435.950
AISAT 24 Nov 23:46:55 23:49:04 13° 272° (W) 23:51:14 437.250
TISAT 1 24 Nov 23:48:41 23:52:58 85° 75° (ENE) 23:57:15 437.305
MaSat-1 24 Nov 23:52:09 23:52:25 10° 46° (NE) 23:52:41 437.345
TIGRISAT 24 Nov 23:52:13 23:56:34 64° 287° (WNW) 00:01:00 435.000
SPROUT 24 Nov 23:54:32 23:58:52 84° 75° (ENE) 00:03:13 437.525
ISS 24 Nov 23:55:21 23:57:08 14° 136° (SE) 23:58:56 145.825
AUBIESAT-1 24 Nov 23:55:37 23:59:26 37° 61° (ENE) 00:03:36 437.475
NANOSAT C BR1 24 Nov 23:58:00 00:02:14 76° 286° (WNW) 00:06:27 145.865
M-CUBED/EXP-1 PRIME 24 Nov 23:59:50 00:03:45 43° 62° (ENE) 00:08:02 437.505
ITUPSAT 1 25 Nov 00:01:41 00:05:29 24° 61° (ENE) 00:09:18 437.325
CUBEBUG 1 25 Nov 00:02:49 00:06:19 22° 267° (W) 00:09:49 437.445
UNISAT 6 25 Nov 00:05:16 00:09:31 48° 290° (WNW) 00:13:50 437.425
QB50P1 25 Nov 00:07:47 00:11:58 60° 288° (WNW) 00:16:06 145.935-145.965
SWISSCUBE 25 Nov 00:12:37 00:16:49 31° 64° (ENE) 00:21:03 437.505
AIST 2 25 Nov 00:15:11 00:17:50 16° 334° (NNW) 00:20:29 435.215
CUSAT 1 25 Nov 00:15:11 00:19:24 73° 78° (ENE) 00:25:07 437.405
BUGSAT 1 25 Nov 00:25:06 00:29:04 46° 290° (WNW) 00:32:57 437.445
